{"data":{"norad_id":55263,"epoch":"2026-05-23T05:39:26.844768Z","epoch_age_seconds":223907,"freshness":"STALE","line1":"1 55263U 23008A   26143.23572737  .00000131  00000+0  00000+0 0  9999","line2":"2 55263   0.0036 320.7234 0000178  81.6333 307.1771  1.00272469 12261","mean_motion":1.00272469,"eccentricity":1.78e-5,"inclination_deg":0.0036,"raan_deg":320.7234,"arg_perigee_deg":81.6333,"mean_anomaly_deg":307.1771,"bstar":0,"rev_number":1226,"period_min":1436.0871078182,"perigee_km":35785.652683435,"apogee_km":35787.153741067,"semimajor_km":42164.540212251,"source":"CELESTRAK","updated_at":"2026-05-25T13:38:14.137919Z"}}